Wind_Speed
24 27 24 23 21 22 24 25 24 23 23 21 21 21 21 21 23 24 24 25 26 26 26 27 27 27 27 26 25 25 24 22 20 20 20 19 18 16 16 16 17 18 18 18 17 18 17 16 16 15 14 14 14 15 15 16 19 20 21 19 19 19 18 18 20 19 18 19 18 17 16 16 15 15 15 15 16 16 17 18 19 19 18 17 17
28 25 22 20 19 20 23 24 23 23 22 22 21 21 21 20 21 23 24 24 24 24 24 25 25 25 25 25 24 23 23 21 20 20 19 18 17 15 15 15 16 17 17 17 17 17 16 16 16 15 15 15 14 15 15 16 18 19 19 19 19 19 18 19 21 19 19 19 18 17 16 16 16 16 16 15 15 15 16 17 18 18 17 16 17
29 23 20 19 18 19 22 24 23 23 22 22 21 21 21 20 20 22 23 23 23 22 22 23 23 23 23 23 22 21 21 20 20 19 18 17 16 15 14 15 15 16 17 17 16 16 16 15 15 15 15 15 15 15 16 17 18 19 19 20 20 21 20 20 20 19 19 19 18 16 16 16 16 16 16 15 15 15 16 17 17 16 16 16 17
30 26 22 20 18 19 22 23 23 24 23 23 21 21 21 20 20 20 21 22 22 22 21 20 21 21 21 21 20 20 19 19 18 18 17 15 15 14 14 14 15 16 16 16 16 15 16 15 14 14 14 15 15 15 16 17 19 20 21 22 22 22 21 20 19 19 19 18 17 16 17 17 16 15 15 15 15 16 17 17 16 16 16 16 16
32 29 26 23 19 19 21 22 23 23 23 22 22 21 21 20 20 20 20 20 21 21 20 20 19 19 19 19 19 19 18 17 17 16 15 15 14 14 14 14 15 16 15 15 15 15 15 14 13 13 14 14 14 15 16 18 20 21 22 23 23 23 21 20 19 18 18 17 16 17 18 17 16 15 14 14 15 16 16 16 16 16 16 15 15
34 30 29 25 21 20 20 22 22 23 23 22 22 21 21 20 20 20 20 19 20 20 20 20 19 19 18 18 18 18 17 17 16 16 15 14 14 13 14 14 15 16 15 14 14 16 15 13 13 14 14 14 15 15 17 18 20 21 21 22 22 21 19 19 18 16 16 16 17 17 18 18 16 16 15 14 14 14 14 15 16 16 15 15 15
31 28 27 26 23 22 21 22 21 22 22 22 22 21 21 21 20 20 20 19 19 19 19 19 19 18 18 17 17 16 16 16 15 15 15 14 14 14 13 13 14 14 14 13 13 14 14 13 14 14 14 14 15 16 17 18 19 19 19 19 18 18 17 16 15 14 14 15 16 17 18 18 16 15 15 14 14 13 14 15 15 15 15 15 15
28 24 24 24 23 24 22 21 21 22 22 21 22 21 21 21 20 20 19 19 19 19 18 17 17 17 17 17 16 15 15 15 15 15 14 15 15 14 13 13 14 13 13 13 13 14 14 12 12 12 12 13 15 16 17 17 18 18 17 17 17 16 14 15 14 12 12 13 14 15 16 17 15 14 13 13 13 14 15 15 14 14 14 15 14
26 22 22 23 22 23 22 22 21 21 22 21 21 21 21 21 21 20 19 19 18 18 17 17 16 16 16 16 15 14 14 14 14 14 14 14 15 14 14 13 13 13 12 12 12 12 12 12 10 10 11 12 14 15 15 16 16 16 16 16 15 14 11 11 12 11 11 11 12 13 15 16 14 13 12 12 13 13 14 15 14 14 14 14 14
23 22 22 22 22 22 22 21 20 21 22 21 22 22 21 21 21 20 19 18 18 17 17 16 15 15 14 14 14 13 13 13 13 13 13 13 14 14 14 13 13 12 12 12 11 10 10 10 9 10 10 12 13 12 13 13 13 13 13 12 12 10 7 7 9 11 11 10 11 12 14 14 12 12 11 11 13 13 13 15 14 15 14 13 14
19 21 22 21 22 21 22 21 21 22 22 22 23 23 22 21 21 20 19 18 17 17 16 16 15 15 14 13 13 13 13 13 13 12 13 13 13 13 13 13 12 11 11 10 10 9 8 8 9 10 10 12 12 10 10 10 10 11 10 9 8 6 6 7 10 12 11 10 11 11 12 11 12 11 10 11 14 14 14 15 14 15 14 13 12
16 18 20 21 21 21 22 22 21 21 22 23 23 23 22 22 21 20 19 18 17 16 16 15 15 14 13 13 13 14 13 13 13 13 13 13 13 13 13 12 11 11 10 9 8 7 7 7 8 9 10 11 10 9 9 8 9 9 8 8 7 6 6 8 11 13 13 11 10 11 11 11 12 11 10 12 15 15 14 14 14 15 14 12 12
18 18 17 17 19 21 22 21 21 20 21 21 22 22 21 22 21 20 19 18 17 16 16 16 15 14 14 14 14 14 13 13 12 12 13 13 13 12 12 11 10 10 9 8 7 6 5 6 8 9 10 11 10 9 9 8 8 8 7 8 8 7 7 10 14 15 14 12 11 12 11 10 11 9 10 13 15 15 13 14 14 15 13 11 12
23 21 18 16 16 17 18 19 18 18 18 18 19 20 20 21 21 20 19 18 17 16 16 16 15 15 14 14 14 14 13 12 12 12 12 12 12 12 11 11 10 9 8 7 6 5 5 6 7 8 9 10 11 11 10 9 9 8 7 8 8 9 11 14 16 16 14 12 11 11 9 9 10 10 12 14 14 14 13 14 14 14 12 10 10
25 22 20 17 15 14 15 17 17 16 17 17 18 19 20 20 20 19 18 18 17 17 17 16 15 15 15 15 14 14 12 12 11 11 11 11 11 11 10 10 9 9 8 7 6 6 6 7 7 7 8 9 10 10 10 9 9 8 7 8 9 11 14 16 16 15 14 12 11 10 8 8 9 11 12 13 13 14 14 13 14 13 12 10 9
24 20 19 18 16 14 14 14 16 17 17 17 18 18 19 20 20 19 18 17 17 17 16 15 15 15 14 14 13 13 12 11 11 10 10 10 10 9 9 8 9 9 9 8 7 7 7 7 7 6 7 8 9 8 9 9 9 9 8 8 10 14 16 16 15 15 13 12 11 9 8 8 10 11 12 12 12 13 13 13 13 13 12 11 10
23 21 19 19 17 15 14 13 15 17 16 17 18 18 19 19 19 18 17 16 16 16 16 15 15 14 13 13 13 12 12 11 10 10 10 9 9 8 8 8 8 8 8 8 8 7 6 6 6 5 6 7 8 7 8 9 9 9 8 7 10 15 17 15 14 13 11 11 10 9 8 8 9 9 10 10 11 13 12 12 12 12 11 11 11
23 22 19 18 19 16 15 14 15 16 16 17 17 18 19 19 19 18 17 16 16 16 15 15 14 13 12 12 11 11 11 10 10 10 10 9 8 8 8 8 7 7 8 8 7 6 6 5 5 4 5 6 6 7 7 9 9 9 7 6 10 16 17 15 13 12 10 10 9 8 8 8 8 8 9 9 9 12 12 11 11 11 11 11 10
21 22 18 17 19 18 17 16 16 16 17 17 18 18 18 19 18 17 17 16 16 16 15 14 13 12 11 11 10 9 9 9 9 9 10 9 8 8 7 7 6 6 7 7 7 6 5 5 4 4 4 6 5 6 7 10 10 9 7 6 9 15 17 15 13 11 10 9 8 7 7 7 7 8 9 8 9 12 12 11 11 11 11 10 10
22 21 19 18 18 19 18 17 16 16 17 18 18 18 18 18 18 17 17 16 16 15 14 13 12 11 10 10 9 9 9 9 9 9 9 9 8 8 7 6 5 5 6 6 6 6 5 5 4 3 4 5 4 4 7 10 10 9 7 6 8 15 17 15 12 11 10 8 7 6 6 7 8 9 9 9 10 11 12 12 11 11 10 10 9
24 22 20 20 19 18 18 17 16 16 17 18 18 18 18 18 17 17 16 15 15 14 13 12 11 11 10 10 9 9 9 9 9 9 9 8 8 7 6 6 5 5 4 4 5 6 6 5 4 3 3 4 4 3 6 9 9 9 7 6 8 15 17 15 12 11 9 7 7 6 6 6 8 9 9 9 10 9 11 13 11 10 10 10 9
23 23 20 20 21 20 20 20 17 15 16 18 19 19 18 18 17 16 15 14 14 13 13 12 12 11 11 10 10 9 9 9 8 9 9 8 8 7 6 5 5 4 4 3 4 5 5 5 4 3 2 3 3 3 5 7 8 8 7 5 7 14 16 14 12 11 9 7 6 6 6 7 8 9 10 10 10 9 10 12 12 10 9 10 9
23 24 23 24 24 24 23 23 21 19 20 19 20 20 19 18 17 16 15 14 12 12 12 12 12 11 11 10 10 10 9 8 8 7 8 8 7 7 6 5 5 4 4 3 3 4 5 5 4 3 2 2 3 3 4 7 7 7 6 5 6 13 16 13 11 9 8 6 5 5 6 7 8 10 10 11 11 9 10 10 11 10 8 9 9
27 28 28 28 26 26 24 23 23 23 23 21 21 20 19 18 17 16 15 14 13 13 12 12 11 11 11 10 10 10 10 9 8 7 7 8 7 7 7 6 5 5 4 3 3 4 5 6 5 4 3 3 2 2 4 7 7 6 6 5 6 9 14 13 10 8 6 5 4 5 6 7 8 10 10 11 11 10 10 10 10 10 9 9 9
31 31 29 29 27 25 24 25 26 26 23 21 21 20 19 18 17 16 15 14 13 13 12 11 11 10 10 10 11 11 10 10 9 8 8 8 8 7 7 6 6 4 4 2 2 4 5 6 6 5 4 4 3 1 3 6 7 5 5 6 4 5 11 12 9 8 6 5 4 4 5 6 7 9 9 10 10 10 10 9 9 9 9 9 8
30 29 30 30 28 26 26 27 27 25 23 21 21 20 19 18 17 16 15 14 13 13 12 11 10 11 11 11 11 11 11 10 10 9 8 8 8 8 7 7 6 4 3 2 1 3 4 5 5 5 4 4 3 1 1 4 6 5 4 4 3 3 7 11 10 8 7 5 4 4 5 6 7 7 8 9 9 10 10 9 9 9 9 9 7
29 29 31 30 29 28 28 28 27 25 23 20 20 19 18 18 17 16 15 14 14 13 13 12 11 11 12 11 12 11 11 11 11 10 9 9 9 9 7 7 6 5 4 3 2 2 2 3 4 4 4 4 3 2 1 1 3 4 3 3 2 2 6 11 11 9 7 5 4 4 4 5 6 6 6 8 8 9 9 9 8 8 9 9 8
27 29 30 29 29 29 28 27 25 23 22 20 19 19 18 17 15 14 14 14 14 14 13 12 11 12 12 12 12 12 11 12 12 10 9 10 10 9 8 8 7 6 5 4 3 3 2 2 3 4 5 4 2 1 2 1 1 4 3 2 2 4 7 11 11 10 7 6 5 4 4 4 5 7 7 7 8 8 9 9 8 7 8 8 8
26 29 31 29 28 26 25 24 23 22 21 20 19 18 17 16 15 14 13 13 14 14 13 13 13 13 13 13 13 13 12 12 11 11 10 10 10 10 9 8 8 7 7 6 5 4 2 2 3 5 6 5 2 1 2 2 1 3 1 1 4 7 8 11 12 10 8 6 5 4 4 4 4 6 7 7 8 7 7 9 9 7 7 7 8
26 27 26 25 24 23 22 22 22 21 20 19 18 17 16 16 15 15 14 14 14 15 15 15 15 15 15 14 14 14 13 12 11 11 11 11 11 11 10 9 9 8 8 7 6 4 3 3 4 6 7 5 3 1 1 1 1 2 1 2 4 7 7 11 12 10 8 6 5 4 4 4 4 5 6 6 8 7 5 8 9 7 6 7 7
21 21 20 18 20 21 21 21 21 21 19 18 17 16 15 15 15 15 15 15 16 16 17 17 17 17 16 15 15 15 14 13 12 11 11 12 12 11 10 10 10 9 9 8 7 6 4 4 4 6 6 6 4 3 2 1 1 3 2 1 3 6 6 11 13 10 8 6 5 4 4 4 4 5 5 5 8 8 5 6 7 6 6 8 8
16 18 17 16 19 21 21 20 20 19 17 15 15 15 14 14 15 15 16 16 16 17 18 18 18 18 17 16 15 15 15 14 12 11 11 12 13 11 11 11 11 11 11 11 10 8 6 5 5 6 7 6 5 5 4 4 4 4 2 1 3 5 7 11 12 11 8 6 5 5 5 5 5 5 5 5 7 8 6 5 5 3 5 8 9
13 15 14 17 20 20 20 19 18 16 14 13 13 14 14 14 15 16 17 17 16 17 18 20 19 18 17 16 15 14 15 14 13 13 13 13 13 11 11 11 11 11 12 12 11 10 8 7 6 7 8 7 6 6 5 6 6 5 3 2 3 5 8 10 11 10 8 6 6 6 5 6 6 5 5 5 6 7 6 6 5 3 4 6 8
14 15 15 18 20 19 19 17 16 14 12 12 13 14 14 15 15 16 17 16 16 16 16 18 19 18 17 16 16 15 15 15 13 13 13 13 12 10 11 11 10 11 11 11 11 11 10 9 8 8 8 7 6 5 5 6 6 4 4 4 5 7 8 10 10 9 7 7 7 7 6 6 6 6 5 5 6 6 6 7 6 4 3 3 5
16 18 17 20 21 19 18 16 15 14 13 13 13 13 14 14 14 14 15 15 15 14 14 15 17 16 14 14 15 15 14 14 12 12 12 12 11 11 11 11 10 9 10 11 11 11 11 10 8 8 8 7 6 5 4 6 7 6 6 6 7 9 9 9 10 10 9 9 8 8 8 7 7 7 6 6 6 7 7 8 7 6 4 3 3
17 18 17 20 22 19 17 16 15 15 14 14 13 13 13 14 13 12 12 13 13 13 13 13 14 13 13 13 13 13 12 12 12 12 12 11 11 12 12 11 10 10 10 11 11 11 11 9 9 10 9 8 8 7 6 8 9 8 7 7 8 10 11 9 7 8 9 10 10 11 10 9 9 8 7 7 8 8 8 9 9 9 8 7 5
19 20 20 21 22 20 18 16 15 16 15 15 14 13 13 13 12 10 9 10 10 12 12 12 12 11 11 10 10 10 10 11 12 13 12 11 12 13 13 12 11 11 11 11 12 12 11 10 10 10 11 11 10 9 9 9 9 9 8 7 6 7 8 7 5 4 3 5 7 10 12 11 11 10 10 9 9 9 8 9 9 10 11 11 10
18 21 22 22 22 21 20 18 17 17 16 15 14 13 13 13 11 9 7 7 7 9 9 9 10 10 9 8 8 8 8 9 11 12 12 12 13 12 12 11 10 10 11 11 13 13 12 11 11 10 11 12 12 10 10 10 8 7 6 6 4 4 3 5 6 4 3 3 2 3 8 10 10 11 11 11 11 11 10 10 10 11 11 12 12
17 20 20 20 21 22 21 20 18 18 16 14 13 14 14 14 12 9 7 7 7 7 7 7 7 7 7 7 7 7 6 6 8 10 10 11 12 11 10 9 8 9 11 11 12 13 13 13 11 10 11 12 11 10 10 10 8 5 4 3 2 4 5 3 4 5 7 7 5 4 5 5 5 6 7 8 11 12 13 12 12 12 12 13 13
19 21 21 21 22 22 22 21 20 19 17 16 16 16 16 14 12 10 8 7 7 6 5 4 4 4 4 5 5 4 4 4 7 8 7 8 9 10 9 8 9 10 11 12 13 13 14 13 11 12 13 13 11 10 9 9 9 7 6 5 5 7 8 5 3 3 4 6 8 9 8 6 4 3 3 3 5 8 11 13 14 13 13 13 14
20 23 23 23 24 23 22 22 21 20 20 20 19 19 18 15 13 11 9 8 8 6 5 4 3 2 2 3 4 4 3 4 6 6 5 5 6 7 8 8 10 11 11 12 12 13 14 12 12 13 14 14 13 11 9 8 8 6 5 4 3 4 5 4 3 3 4 3 5 7 9 11 8 6 5 4 4 4 5 9 12 13 14 14 15
22 26 26 25 24 24 24 24 23 22 22 21 20 20 18 16 14 12 11 10 9 8 8 6 5 4 4 3 3 4 4 5 5 4 3 3 4 4 5 7 8 9 9 9 10 13 14 13 12 14 14 13 13 12 11 8 4 3 3 2 1 1 2 3 3 3 3 4 4 4 5 7 8 7 7 7 7 5 4 6 8 10 13 14 15
25 27 28 27 26 26 26 26 25 23 21 20 20 19 17 16 15 14 13 12 10 9 8 8 6 5 4 2 2 1 2 4 5 5 4 3 3 3 4 4 5 6 7 8 10 12 14 13 13 14 14 13 11 12 12 9 4 3 4 2 1 1 1 2 3 3 3 4 5 5 4 5 5 4 5 6 6 5 5 5 4 5 7 9 12
25 27 28 29 29 28 27 27 25 23 21 19 18 17 16 16 15 15 15 13 11 10 8 7 7 6 5 4 3 3 3 4 4 5 4 4 3 4 5 5 5 5 6 8 11 12 12 12 13 14 14 13 10 9 11 9 6 5 4 2 1 2 1 1 2 2 3 4 4 4 4 3 3 2 2 4 6 7 7 7 7 7 7 8 9
26 29 30 31 31 30 28 27 25 23 21 20 18 16 16 17 17 16 14 13 13 12 10 9 9 8 6 4 4 4 4 5 4 5 5 4 4 5 5 5 5 5 5 6 10 12 10 10 11 10 10 10 9 9 9 7 7 8 4 3 2 1 2 1 1 1 2 3 2 3 3 3 2 1 1 3 5 6 6 8 8 10 10 10 11
27 31 33 33 31 30 29 28 27 25 23 20 19 18 18 19 19 19 16 15 15 14 12 10 9 8 6 4 3 4 5 5 6 6 5 4 5 5 5 5 5 5 5 5 7 8 8 8 8 8 7 6 7 9 9 7 8 8 6 5 4 2 3 2 1 0 1 2 2 1 2 2 2 2 4 5 4 4 5 6 6 7 8 9 11
27 31 33 32 31 31 31 30 28 26 24 22 20 20 21 21 22 22 20 18 17 15 13 11 9 7 6 5 4 6 5 5 6 6 6 5 5 5 4 4 5 5 5 6 6 5 5 5 3 5 7 5 6 9 11 12 10 7 6 7 6 6 6 4 2 1 1 1 1 2 1 2 2 4 6 5 5 5 5 6 6 6 7 9 9
27 30 32 32 33 33 32 30 28 27 26 23 22 21 23 24 24 23 21 20 18 16 14 11 9 8 7 7 6 6 5 5 5 5 5 5 4 3 3 3 5 6 5 7 8 7 5 4 3 4 5 5 6 9 11 14 12 8 7 7 6 5 4 3 2 2 2 1 2 3 4 4 5 7 8 7 7 6 7 7 7 7 7 9 9
30 32 33 34 33 32 30 29 29 29 27 24 22 22 23 25 25 24 22 20 17 15 14 12 11 10 9 8 7 6 5 4 4 5 6 6 4 3 3 3 5 6 7 8 9 9 7 5 3 4 4 5 6 5 6 9 7 6 6 6 5 4 3 3 3 3 3 2 0 2 4 7 8 10 11 9 8 9 8 7 6 6 5 5 6
30 32 32 33 32 30 30 31 31 29 27 25 23 23 25 26 27 26 24 21 18 17 15 14 12 11 10 10 8 6 5 5 5 6 8 8 7 5 4 4 6 7 8 8 9 9 8 7 5 4 4 4 4 3 3 4 3 3 4 5 4 5 4 3 3 3 3 3 2 1 3 5 5 8 12 14 15 16 17 17 16 15 15 12 10
25 27 29 30 30 30 31 32 31 28 26 24 23 25 27 29 29 27 26 23 21 20 19 16 14 13 12 10 9 7 6 6 7 8 10 10 8 7 6 6 7 7 7 8 8 7 7 7 6 6 6 5 6 6 5 5 5 5 5 4 5 6 5 4 5 4 3 3 3 1 2 4 3 5 9 14 16 17 19 20 21 20 19 19 17
Wind_Direction
177 174 171 169 171 169 163 161 157 154 151 148 143 138 134 128 125 124 123 121 118 118 118 118 118 118 117 116 115 113 113 111 109 107 106 104 103 104 104 100 96 97 101 103 106 109 113 116 115 115 115 115 114 114 112 115 117 115 114 113 119 122 118 112 105 102 100 95 95 95 92 91 88 90 92 90 88 88 89 89 87 83 79 76 73
172 170 166 166 169 165 162 162 158 155 153 150 146 142 137 131 127 126 126 124 122 121 120 121 120 121 120 119 117 115 113 111 109 106 104 105 106 107 110 108 101 101 106 107 107 109 113 115 116 116 116 116 115 116 115 116 118 117 116 114 117 118 114 112 108 105 103 100 99 97 94 92 88 90 92 90 89 89 89 87 86 84 80 78 76
166 163 161 163 166 164 164 164 161 158 156 153 149 145 139 133 130 127 127 126 125 123 123 123 122 122 121 121 119 117 113 112 110 108 108 109 111 111 114 114 108 104 105 106 105 107 111 114 115 116 117 119 117 118 117 117 118 116 114 113 114 112 110 109 108 107 105 103 102 102 99 96 93 91 92 92 90 87 86 85 84 82 81 80 77
164 162 162 161 164 167 165 164 164 162 159 155 151 146 141 135 131 129 127 127 127 125 125 125 124 123 122 122 121 120 117 114 112 112 112 112 113 114 118 119 115 109 104 103 104 105 107 109 110 112 116 118 118 120 120 120 119 116 115 115 113 109 107 107 106 106 105 104 102 102 102 100 98 95 94 93 93 90 88 88 84 83 82 80 77
165 165 164 160 163 169 165 164 165 164 161 157 153 147 142 137 133 132 129 128 128 127 127 127 126 125 123 123 122 122 120 118 116 115 114 113 111 113 118 120 118 113 107 104 104 106 107 107 103 109 116 117 119 119 120 122 119 118 117 114 110 105 104 104 103 103 102 103 100 99 102 102 99 96 94 92 94 95 96 95 88 85 83 79 76
166 166 165 160 161 167 166 165 164 165 164 159 155 149 144 140 136 133 131 130 130 130 129 129 129 128 125 123 122 123 122 122 121 119 116 114 113 113 115 118 117 112 109 106 105 105 110 110 99 106 116 118 119 120 122 122 121 121 118 112 108 104 103 104 101 101 103 102 99 98 102 105 103 101 97 94 96 97 100 98 90 86 83 80 77
162 162 162 157 157 164 168 165 163 165 165 161 158 152 146 142 139 135 134 133 132 133 132 131 130 128 127 125 124 123 124 125 125 122 117 115 114 113 112 113 112 109 110 109 108 105 109 108 97 100 111 119 121 122 124 124 124 125 124 120 117 111 106 107 104 101 103 102 99 98 103 107 107 105 105 105 100 94 97 98 93 89 85 83 80
158 158 157 153 156 163 166 163 162 165 165 163 161 155 149 145 142 138 136 136 134 135 135 133 130 129 129 128 127 127 128 129 130 127 124 121 118 118 116 113 114 115 115 112 109 107 107 105 100 99 104 121 128 127 128 129 129 130 131 131 130 125 114 109 111 110 107 104 101 101 106 111 112 109 108 111 103 92 97 100 96 94 89 86 82
157 156 153 151 155 160 161 161 163 164 163 163 162 159 153 148 146 142 140 138 136 137 138 136 132 131 129 129 129 130 132 133 135 134 131 129 126 126 126 124 125 127 124 117 112 111 111 109 107 106 106 120 131 130 131 132 132 134 136 137 138 134 123 115 121 123 117 110 105 106 110 115 119 117 116 116 110 101 104 105 99 96 91 87 83
154 152 153 152 152 158 160 161 163 162 162 162 163 162 157 153 149 147 144 141 140 141 141 139 136 134 132 130 130 132 135 136 136 137 136 134 133 133 134 134 133 133 130 124 119 116 112 106 104 108 113 122 128 127 129 133 134 138 138 141 143 140 138 138 141 137 130 119 112 111 113 119 121 120 121 118 114 109 105 103 99 96 91 88 86
147 150 154 151 152 159 159 161 164 162 162 160 162 164 161 157 154 150 148 145 144 144 144 142 140 138 135 133 132 134 135 136 136 137 137 138 139 140 140 138 135 136 137 133 129 123 109 104 102 104 113 124 131 131 130 135 140 143 140 140 139 145 163 162 154 146 138 129 120 117 117 118 115 116 119 113 112 112 106 103 103 99 94 91 91
137 141 147 150 155 159 158 161 163 163 163 159 160 164 164 161 156 154 150 148 146 146 145 144 143 140 138 136 135 134 134 136 135 136 137 140 142 144 145 142 139 140 145 146 141 130 114 112 110 106 112 123 134 141 140 141 148 148 141 129 125 149 166 155 153 147 141 135 127 123 122 117 117 119 118 112 112 113 111 108 108 103 98 96 94
129 133 139 148 155 158 158 160 161 162 162 159 159 160 164 162 158 156 152 150 149 148 147 147 147 144 141 138 136 135 136 137 135 136 137 140 142 145 148 146 146 147 152 156 153 139 124 124 119 112 112 118 128 138 141 146 153 151 138 120 125 152 148 140 147 145 142 139 132 129 127 122 123 122 118 117 117 116 113 111 109 105 105 104 99
141 145 145 150 155 156 158 157 157 158 158 158 158 158 161 163 160 157 154 153 151 150 149 151 150 148 144 140 138 137 138 138 137 138 138 141 142 144 148 149 150 154 158 158 159 147 136 135 127 120 114 113 124 134 140 148 154 150 132 117 130 144 135 137 142 142 142 139 133 131 129 127 128 125 122 123 122 121 117 114 112 110 111 111 105
144 147 144 148 152 157 158 154 153 155 157 159 159 159 161 162 161 159 157 156 154 152 152 154 154 150 146 141 139 139 139 138 139 141 141 143 144 145 146 147 150 151 153 153 153 145 141 139 129 121 112 108 117 134 146 152 154 149 129 118 137 143 138 141 141 141 140 135 131 131 130 130 132 129 128 126 124 122 121 120 117 115 112 112 112
142 141 140 144 148 153 154 153 154 156 159 160 160 160 162 163 162 162 160 158 155 153 154 156 155 151 147 141 138 139 140 141 141 143 144 145 146 146 144 144 146 147 147 144 144 141 137 132 125 117 108 105 106 123 147 155 153 149 128 119 145 149 146 147 143 142 137 132 131 131 131 131 134 135 132 131 127 124 123 123 122 120 115 112 113
145 142 140 141 143 146 150 156 157 158 161 159 160 162 163 165 165 164 162 159 155 155 156 157 155 151 148 143 140 140 142 143 143 145 147 149 150 148 143 142 143 144 145 142 141 140 133 127 122 113 107 106 98 104 140 155 153 148 125 118 151 155 153 152 146 142 137 133 131 130 129 131 139 142 139 137 131 125 124 125 123 122 118 114 114
144 144 142 144 142 145 154 159 160 159 161 161 162 164 165 166 166 165 162 159 157 157 158 157 154 152 149 145 144 141 141 143 144 147 151 152 152 150 145 142 140 142 145 143 142 140 134 127 122 116 111 112 96 88 125 150 149 144 122 113 153 160 158 156 150 144 138 135 133 133 131 135 143 146 147 147 136 129 128 129 126 124 121 119 118
141 143 146 152 146 147 154 157 161 160 163 165 166 166 166 167 166 165 163 160 159 159 159 157 155 153 150 146 146 144 142 143 144 149 153 153 152 152 148 142 138 139 145 145 144 144 141 136 127 123 115 116 103 82 113 141 143 139 120 107 152 162 159 159 156 148 141 138 137 136 135 141 145 147 153 153 143 136 134 133 131 129 128 124 120
144 147 152 157 150 149 151 153 160 163 167 167 167 167 167 168 166 165 162 161 160 159 158 157 156 155 153 153 153 152 150 148 149 153 154 154 154 154 152 146 141 138 145 149 150 152 152 148 134 127 119 116 116 92 113 133 137 138 122 105 148 161 161 163 161 152 145 142 143 142 142 148 146 150 158 156 153 149 141 138 135 133 132 129 127
149 154 158 157 153 153 152 152 159 168 172 169 168 167 166 167 166 163 162 163 162 159 159 158 160 161 163 166 167 165 161 158 155 157 156 154 154 154 153 150 149 142 143 152 158 159 157 156 141 132 126 120 133 124 120 128 133 139 125 100 141 161 164 167 165 158 151 145 145 148 150 154 155 158 164 159 160 163 149 142 139 138 136 133 134
150 155 162 163 160 160 157 155 160 172 178 174 170 166 166 167 166 165 164 165 164 162 163 164 169 172 175 177 177 175 172 168 163 162 159 155 155 155 158 160 160 152 147 153 164 168 164 162 155 146 143 138 150 145 131 129 129 140 130 93 130 160 168 172 169 163 153 148 148 154 157 160 164 163 166 162 161 166 153 146 145 144 145 141 140
153 160 169 174 172 168 164 161 164 177 183 178 172 168 169 169 168 168 166 166 166 168 170 172 178 180 180 182 184 182 180 177 172 169 164 160 162 164 168 172 169 163 160 161 168 176 175 171 166 168 188 185 164 146 138 136 133 142 137 96 118 156 169 174 174 168 154 148 152 162 165 163 168 169 169 165 164 164 155 153 151 148 151 148 145
164 171 176 180 179 172 166 164 170 181 183 177 173 172 172 170 171 169 167 168 171 176 180 182 185 187 185 185 188 187 186 184 179 176 174 175 176 174 176 179 176 173 171 173 178 180 181 182 184 193 210 217 191 151 138 142 140 146 142 111 108 150 170 177 178 172 156 151 159 168 171 166 170 174 174 170 169 165 159 160 156 154 156 152 154
172 176 179 180 179 174 170 171 177 183 182 178 175 174 174 173 172 170 170 174 179 181 186 192 191 193 192 190 194 191 190 190 188 187 188 190 191 187 185 184 182 183 182 181 188 188 188 189 196 207 216 225 227 200 139 146 145 147 146 126 105 141 172 183 185 178 164 159 165 171 175 172 172 178 178 176 176 169 165 165 160 161 162 158 165
176 178 181 181 179 176 177 179 181 182 183 182 178 176 176 177 176 174 176 181 186 187 190 199 199 200 198 196 198 197 196 198 201 203 202 205 206 204 198 195 193 195 198 196 201 197 197 197 203 214 223 231 241 266 128 147 148 151 153 137 112 122 173 185 190 185 173 167 168 173 180 177 174 178 183 183 183 176 171 172 170 170 167 163 166
181 182 182 182 180 180 183 183 183 182 183 185 182 181 180 182 182 178 183 187 191 194 197 202 205 206 204 202 203 203 206 207 210 215 216 217 220 219 213 211 208 208 220 222 219 211 204 204 209 213 217 225 239 288 341 136 161 170 178 157 138 140 169 181 189 186 174 169 167 172 184 187 180 175 181 184 185 183 178 179 180 182 179 172 167
182 183 184 183 182 183 184 184 184 184 184 185 186 186 184 186 184 180 189 193 196 202 204 206 208 210 209 209 211 213 215 214 216 223 228 228 230 230 226 225 223 224 236 238 224 219 216 200 199 198 195 202 222 318 356 15 190 193 188 167 187 187 173 177 186 184 175 169 164 170 185 192 184 174 183 189 187 191 186 183 189 193 192 183 174
185 184 185 184 183 182 181 184 186 186 185 185 188 190 188 188 187 187 194 199 204 209 210 210 211 214 215 215 219 223 221 219 224 231 239 241 238 239 240 239 238 240 246 245 231 224 219 193 183 180 175 184 197 65 31 41 141 197 173 25 201 190 180 182 186 185 179 173 164 167 186 198 190 184 197 195 189 203 196 185 192 200 201 195 185
189 186 185 183 181 179 179 184 187 188 187 186 189 193 192 192 194 195 199 205 211 215 216 215 217 219 220 220 223 228 225 225 232 238 245 248 244 245 250 252 251 252 255 251 239 232 221 201 183 174 174 185 190 152 69 54 75 214 318 11 192 189 188 187 189 191 184 176 169 171 188 201 200 199 212 198 186 205 211 188 193 205 205 201 197
191 183 181 180 175 176 179 184 188 190 189 188 192 194 196 200 203 202 204 212 216 219 220 222 225 226 226 225 226 230 231 233 235 238 245 245 243 247 254 259 260 260 262 259 250 244 231 215 197 185 187 195 202 211 232 228 262 247 273 357 182 191 202 193 192 196 189 182 175 177 191 203 217 215 215 199 188 202 211 190 195 207 204 200 202
191 179 175 174 172 175 181 186 191 191 191 193 196 199 203 209 212 207 209 218 221 222 223 225 231 233 231 230 230 233 236 237 234 238 243 240 238 245 254 258 261 263 264 262 256 252 245 228 213 208 208 213 226 233 230 230 242 249 246 222 174 178 192 193 195 199 195 196 191 189 197 200 216 223 218 202 191 203 205 194 205 209 199 202 205
191 178 170 172 173 177 182 188 194 194 194 196 200 204 209 213 216 212 213 222 226 227 226 226 233 237 239 239 237 235 239 240 237 238 238 235 234 241 252 255 258 261 260 255 251 250 249 240 234 230 221 225 240 240 238 235 236 241 212 178 157 162 186 193 197 202 200 206 207 207 208 206 214 225 229 216 199 207 206 204 217 210 190 202 207
187 180 175 175 176 178 183 189 193 193 194 199 202 204 208 213 215 215 218 226 232 235 231 227 232 236 239 243 242 240 243 245 239 235 233 231 233 236 243 247 252 257 252 245 242 240 242 244 247 238 223 227 242 244 243 229 217 206 168 148 132 137 173 193 199 208 213 219 220 219 218 217 220 228 235 232 220 217 214 219 229 225 207 199 202
182 183 183 180 179 182 185 187 188 189 192 196 197 198 206 210 211 214 220 229 235 235 232 229 231 235 235 236 240 242 242 241 234 229 228 228 234 236 234 236 243 247 240 237 236 234 236 239 242 234 221 215 219 217 211 201 189 175 155 143 134 131 148 174 192 206 214 221 225 226 226 226 229 235 242 242 238 233 227 229 237 242 245 240 213
184 188 189 185 183 185 189 187 183 185 188 190 189 192 201 204 206 210 216 222 223 225 227 226 228 232 234 233 234 236 234 234 233 231 230 231 234 236 233 231 237 241 236 235 235 235 236 235 231 227 217 206 202 192 180 183 179 172 162 146 134 129 129 134 159 193 208 216 223 228 228 231 236 240 245 246 246 246 241 238 242 248 253 260 259
186 188 190 192 188 186 192 190 181 181 183 184 184 187 195 201 204 204 206 212 218 224 223 221 223 227 233 234 230 231 232 231 232 234 232 232 233 236 235 230 233 242 243 243 243 239 236 233 227 222 218 208 199 190 178 175 173 173 181 176 157 140 131 132 146 157 185 209 218 230 232 233 239 243 250 254 254 254 253 250 248 249 252 257 263
189 189 189 193 190 186 191 191 183 182 183 180 180 184 187 193 200 198 196 205 218 225 226 228 227 225 228 233 236 241 241 232 228 230 231 232 233 235 237 230 228 241 248 253 253 245 235 232 229 220 213 208 202 194 185 177 166 165 187 208 221 207 192 221 228 216 207 197 171 238 242 240 240 241 248 255 258 258 258 258 256 253 252 254 259
196 190 188 192 190 186 189 190 184 182 184 182 182 183 182 184 189 185 184 194 205 214 226 237 232 231 232 232 242 246 239 228 222 225 228 230 229 227 230 232 233 242 247 247 248 244 233 229 228 214 198 197 197 191 186 182 170 156 160 165 131 115 122 181 237 233 221 215 213 228 237 235 233 234 242 250 254 255 253 254 257 258 258 256 257
197 189 186 189 187 184 186 187 183 181 183 181 179 177 177 180 180 171 168 176 186 196 209 226 230 239 234 221 222 219 213 205 201 210 220 221 221 221 222 225 234 240 238 232 232 236 232 222 216 206 190 181 179 180 181 180 171 151 136 130 117 107 104 114 136 168 196 210 221 228 231 231 228 224 236 252 254 252 249 248 249 254 261 263 263
190 187 184 184 182 181 181 181 181 181 179 176 173 173 176 179 176 166 159 158 163 167 164 170 176 170 175 178 169 158 160 168 175 190 201 203 212 216 215 219 228 232 231 229 226 226 226 219 203 190 183 174 165 168 175 170 163 145 131 132 134 123 112 117 128 138 157 175 201 221 229 232 232 230 239 260 268 259 250 252 251 251 257 263 266
182 184 185 181 178 177 174 172 174 176 174 173 173 174 178 182 179 171 166 164 162 159 155 153 146 140 141 139 138 130 131 140 147 159 165 173 197 206 209 218 226 229 230 230 230 225 219 214 199 179 173 173 166 169 176 171 162 135 126 109 78 105 120 112 103 105 130 157 166 167 189 208 216 221 230 241 251 253 247 255 260 257 259 265 270
179 180 181 177 173 171 169 168 171 174 175 177 178 177 178 183 183 176 173 172 167 164 163 159 154 155 157 162 177 169 158 151 141 137 128 129 162 178 176 190 212 225 224 217 222 223 209 198 194 182 170 164 158 167 180 184 192 152 117 71 36 42 27 53 73 84 97 134 163 159 148 160 175 193 208 219 231 239 240 238 244 263 264 262 269
175 174 173 172 171 170 170 170 172 175 178 181 182 179 178 182 182 176 174 172 165 164 164 163 166 171 177 191 215 225 210 189 164 147 129 118 146 165 163 166 181 197 205 209 213 218 210 196 193 190 181 175 166 169 181 187 195 178 126 87 76 81 63 348 27 82 94 109 147 170 166 167 173 178 217 249 253 249 256 262 264 268 266 261 264
173 172 173 174 173 173 175 176 176 176 177 182 184 181 179 181 178 171 170 166 160 162 166 167 172 180 190 203 222 223 207 199 186 164 142 122 139 153 157 160 163 167 176 196 210 218 220 209 203 196 188 195 197 189 186 185 191 196 176 134 105 78 201 250 11 83 107 111 132 170 177 184 191 183 333 316 294 274 282 293 288 275 271 279 279
177 174 175 178 177 178 179 179 176 175 178 183 186 187 186 186 181 175 175 173 167 171 178 177 177 184 193 202 200 176 175 186 182 172 163 140 137 146 148 151 145 137 138 154 186 207 210 207 213 208 196 204 212 203 194 192 199 200 181 149 139 148 171 165 132 72 33 97 119 156 193 214 217 290 324 330 328 320 321 322 318 302 293 300 292
181 176 177 179 179 180 181 179 176 176 181 184 187 190 190 189 188 186 187 187 180 179 185 186 181 180 179 180 169 149 148 162 164 170 176 155 135 133 135 149 147 127 112 115 129 149 172 189 206 209 214 219 223 220 202 194 203 193 157 141 133 127 129 129 136 121 53 57 49 66 59 331 320 333 338 345 346 332 326 324 322 321 320 325 315
181 178 178 179 181 182 180 178 177 178 184 187 188 191 190 188 188 189 189 191 188 181 182 184 178 173 170 167 164 153 143 143 147 162 178 171 154 126 104 126 155 140 118 114 117 118 133 155 160 182 212 210 212 227 206 191 197 190 162 147 133 125 111 103 134 136 128 133 352 30 46 39 39 32 21 13 2 342 329 327 322 318 315 317 313
182 182 182 182 183 182 179 179 181 183 187 190 189 190 192 188 187 188 186 187 187 177 175 178 173 171 170 166 165 160 149 141 138 149 166 172 171 149 106 110 140 139 129 122 116 112 111 114 138 168 182 181 191 219 205 191 198 196 181 166 143 122 90 96 131 125 105 104 339 343 26 45 55 49 43 39 35 34 27 22 19 12 2 343 330
186 185 185 186 184 182 182 183 185 187 190 191 190 190 191 189 188 187 183 181 178 170 169 173 172 174 175 170 168 164 157 151 146 150 157 155 148 142 131 124 126 127 129 125 119 114 107 103 111 137 153 156 155 151 162 174 180 178 186 187 161 132 109 109 135 131 105 96 107 111 33 46 46 42 56 65 64 65 64 62 61 58 56 55 51
189 188 188 188 187 185 185 186 188 190 190 191 193 194 193 192 191 188 184 179 174 170 170 175 178 180 181 178 177 173 163 156 153 153 152 149 142 138 137 138 134 130 130 131 133 130 120 118 122 124 124 117 112 119 124 127 129 120 120 146 150 140 130 120 120 122 115 101 102 105 43 54 57 42 68 78 69 66 66 60 56 55 55 56 57
Height
771 772 773 775 777 778 780 781 783 783 784 785 785 786 786 786 786 786 787 788 789 790 791 792 793 794 795 796 797 798 799 800 801 801 802 803 803 804 805 805 806 806 806 807 808 808 809 810 810 810 810 811 811 811 811 811 811 812 812 813 813 814 814 814 815 816 816 816 817 817 817 817 817 818 818 818 818 818 817 818 818 818 818 819 819
768 772 775 777 779 781 783 784 785 785 786 786 786 787 787 787 787 787 788 789 790 791 792 793 794 795 796 797 798 799 800 800 801 802 803 804 804 805 806 807 807 807 808 808 809 809 810 810 811 811 811 812 812 812 812 812 812 813 813 814 814 814 815 815 816 816 817 817 817 818 818 818 818 819 819 819 819 819 819 819 819 819 819 820 820
769 773 776 778 781 783 784 785 786 786 787 787 787 787 788 788 788 788 789 790 791 792 793 794 795 796 797 798 799 799 800 801 802 802 804 805 805 806 807 808 808 809 809 809 810 810 811 811 812 812 812 812 813 813 813 813 813 814 814 815 815 815 816 816 817 817 817 818 818 818 819 819 820 820 820 820 820 820 820 820 821 821 821 821 821
769 770 773 776 780 782 784 786 787 787 788 788 788 788 789 789 789 790 790 791 792 793 794 795 796 797 798 798 799 800 801 802 802 803 804 805 806 807 808 808 809 810 810 810 811 811 812 812 813 813 813 813 814 814 814 814 814 815 815 816 816 816 817 817 818 818 818 818 818 819 819 820 820 821 821 821 821 821 821 821 822 822 822 822 822
767 768 770 774 778 782 784 786 788 788 789 789 790 790 790 790 790 791 791 792 793 794 795 797 797 798 799 799 800 801 802 802 803 804 805 806 807 808 808 809 810 811 811 811 812 812 813 813 813 814 814 814 814 815 815 815 815 816 816 817 817 818 818 818 819 819 819 819 820 820 820 821 821 822 822 822 822 822 822 822 823 823 823 823 823
766 768 769 771 777 782 785 787 788 790 790 790 791 791 791 791 792 792 792 793 794 795 796 798 798 799 800 800 801 802 803 803 804 805 806 807 808 809 809 810 811 811 812 812 813 813 814 814 814 814 815 815 815 816 816 816 817 817 818 818 819 819 819 820 820 820 820 821 821 821 821 822 822 823 823 823 823 823 823 823 824 824 825 825 825
767 770 771 771 776 781 784 786 788 790 791 792 792 793 793 792 793 793 794 794 795 796 797 799 799 800 801 802 802 803 804 804 805 806 807 808 809 809 810 811 812 812 813 813 814 814 814 815 815 815 816 816 816 817 817 817 818 818 819 819 820 820 820 821 821 821 821 822 822 821 822 822 823 823 824 824 824 824 824 824 825 825 826 826 826
769 772 773 774 777 781 784 786 789 790 792 793 794 794 794 794 794 794 795 795 796 797 798 799 800 801 802 803 804 804 805 805 806 806 807 808 809 810 811 812 812 813 814 814 815 815 815 816 817 817 817 817 818 818 818 818 818 819 820 820 821 821 821 821 822 822 822 823 822 822 823 823 824 824 825 824 825 825 825 825 825 826 826 827 827
771 773 775 777 779 782 784 786 789 791 792 794 795 796 795 795 795 795 795 796 797 798 799 800 801 802 803 804 805 806 806 806 807 807 808 809 810 811 812 812 813 814 814 815 815 816 816 817 818 818 818 818 819 819 819 819 819 820 820 821 821 822 822 822 822 823 823 823 823 823 823 824 824 824 825 825 825 826 826 826 826 826 827 827 828
773 775 777 779 781 783 784 787 789 791 793 794 795 796 797 796 796 796 796 797 797 798 799 800 802 803 804 805 806 806 807 807 808 808 808 809 810 811 812 813 813 814 814 815 815 816 817 818 819 819 819 820 820 820 820 820 821 821 821 822 822 822 822 822 823 823 824 824 824 824 824 825 825 825 825 825 825 826 826 826 827 827 828 828 829
777 778 779 781 783 784 785 786 789 791 792 793 795 796 797 797 796 797 797 797 798 799 800 801 802 803 805 805 806 807 808 808 808 809 809 810 811 811 812 813 814 814 815 816 816 817 817 818 819 820 820 821 821 821 822 822 822 822 822 822 823 823 822 822 823 824 825 825 825 825 825 825 825 826 826 826 826 826 827 827 828 828 829 829 829
782 783 783 784 784 785 785 786 788 790 791 792 794 795 797 797 797 797 797 798 799 800 801 802 803 804 805 806 807 808 808 809 809 809 810 811 811 812 813 813 814 815 815 816 817 817 818 819 819 820 821 821 822 822 822 822 822 823 823 823 823 823 822 823 824 825 825 826 826 826 826 826 826 827 827 826 827 827 828 828 828 829 830 830 830
784 786 787 788 787 788 787 788 789 790 791 793 794 796 797 798 798 798 799 799 800 801 802 803 804 805 806 807 808 808 809 810 810 811 811 812 812 813 813 814 815 815 816 817 817 818 819 819 820 820 821 822 822 822 822 823 823 823 823 823 823 822 823 823 824 825 826 826 827 827 827 827 827 827 827 827 828 828 829 829 829 829 830 830 831
779 783 786 790 792 792 791 791 792 793 793 794 796 797 798 799 799 799 800 800 801 802 803 804 805 806 806 807 808 809 810 811 812 812 813 813 814 814 814 815 815 816 817 817 818 819 819 820 820 820 821 822 822 822 823 823 823 824 824 823 823 823 823 824 825 826 826 827 827 827 827 828 828 828 828 828 828 829 829 830 830 830 830 831 831
779 781 784 789 794 796 796 794 794 796 796 796 797 798 799 800 800 800 801 801 802 803 804 805 806 807 807 808 809 810 811 812 813 813 814 814 815 815 815 816 816 816 817 818 818 819 820 820 821 821 821 822 822 822 823 823 824 824 824 824 823 823 824 825 825 826 827 827 828 828 828 828 828 829 829 829 829 829 830 830 831 831 831 831 831
779 783 785 788 794 798 798 798 797 797 798 798 798 799 800 801 801 802 802 802 803 804 805 806 807 808 808 809 810 811 812 813 814 815 815 816 816 816 816 817 817 817 817 818 819 819 820 820 821 821 821 822 822 823 823 824 824 825 824 824 824 824 825 825 826 827 827 828 828 828 829 829 829 830 830 830 830 830 831 831 831 832 832 832 832
778 782 787 789 792 796 798 799 799 798 799 799 799 800 801 801 802 802 803 803 804 805 806 807 808 809 809 810 811 812 813 814 815 815 816 817 817 817 817 817 818 818 818 818 819 819 820 820 821 821 822 822 822 823 823 824 825 825 825 825 824 825 825 826 827 827 828 828 828 829 829 829 830 830 830 830 830 831 832 832 832 832 832 832 832
781 783 789 791 791 794 797 799 800 799 799 800 800 801 801 802 803 804 804 805 805 806 807 808 809 810 810 811 812 813 814 814 815 816 817 817 818 818 818 819 819 819 819 819 819 820 820 821 821 822 822 823 823 823 824 825 825 826 826 825 825 825 826 827 827 828 828 829 829 829 829 830 830 830 831 830 831 831 832 833 833 833 833 833 833
785 786 791 794 792 792 795 798 799 799 800 800 801 802 803 803 804 805 805 806 806 807 808 809 810 811 811 812 812 813 814 815 815 816 817 818 818 819 819 820 820 820 820 820 820 820 821 821 822 822 822 823 823 824 824 825 826 826 827 826 826 826 826 827 828 828 829 829 829 830 830 830 830 830 831 831 831 831 832 833 833 833 833 834 834
786 788 792 794 792 792 793 796 799 800 801 801 802 802 803 804 805 806 806 807 807 808 809 810 811 811 812 812 813 814 814 815 815 816 817 818 819 820 820 821 821 821 821 821 820 821 821 822 822 823 823 824 824 824 825 825 826 826 827 827 826 827 827 828 828 829 829 830 830 831 831 831 830 831 831 832 832 832 832 833 834 834 834 834 835
784 786 790 791 791 792 792 795 798 801 802 802 802 803 804 805 806 807 807 808 808 809 809 810 811 812 812 813 813 814 815 815 815 816 817 818 819 820 821 821 821 821 821 821 821 821 822 822 823 823 824 824 825 825 825 826 827 827 827 827 827 828 828 828 829 829 830 830 831 831 832 831 831 831 832 832 832 832 832 833 834 834 834 835 835
783 785 787 788 788 789 790 791 795 802 805 804 803 804 805 806 807 807 808 809 809 810 810 811 812 812 813 813 814 815 815 815 815 816 817 819 820 820 821 821 821 821 822 822 822 822 822 822 823 824 824 825 825 826 826 826 827 828 828 828 828 828 829 829 830 830 831 831 831 832 832 832 832 832 832 832 833 833 833 834 834 835 835 835 836
782 783 784 784 784 786 787 788 792 800 804 804 803 803 805 805 807 808 809 809 810 811 811 812 812 812 813 814 815 816 816 816 816 816 817 819 820 820 821 821 821 821 822 822 822 822 822 823 823 824 825 826 826 826 826 827 828 828 829 829 829 829 830 830 831 831 831 832 832 832 832 833 833 833 833 833 833 833 834 834 835 836 836 836 836
779 779 780 782 784 785 786 787 791 797 801 802 802 803 804 805 806 807 809 809 810 811 812 812 813 813 813 814 815 816 816 816 816 817 817 819 819 820 821 821 821 822 822 822 822 822 822 823 824 824 825 826 827 827 827 827 828 829 829 829 829 830 830 831 832 832 832 832 832 833 833 833 833 834 834 833 833 834 834 835 835 836 836 837 837
776 778 779 782 784 784 785 787 791 795 798 800 801 802 803 805 806 807 808 809 810 811 812 813 813 813 814 815 816 816 817 817 817 817 818 819 819 820 821 821 821 822 822 822 822 823 823 823 824 825 825 826 827 827 827 828 829 829 830 830 830 830 831 831 832 833 833 833 833 833 833 833 834 834 834 834 834 834 835 835 836 837 837 837 837
777 778 778 780 782 783 785 788 791 794 796 798 800 801 803 804 805 806 807 808 810 811 812 812 813 813 814 815 816 817 817 817 817 817 818 819 820 820 821 821 822 822 822 823 823 823 823 824 824 825 826 826 827 828 828 828 829 830 830 831 831 831 831 832 832 833 833 833 833 833 834 834 834 834 835 835 835 835 835 836 836 837 837 838 838
777 777 778 780 781 783 786 789 791 793 795 797 799 801 802 803 804 805 806 808 810 811 812 812 813 813 814 815 816 817 818 818 818 818 818 819 820 820 821 821 822 822 822 823 823 823 824 824 825 825 826 827 827 828 828 828 829 830 830 831 831 831 832 832 832 833 834 834 834 834 834 834 834 835 835 835 835 836 836 837 837 837 838 838 839
776 778 779 781 782 785 788 790 792 793 795 797 799 801 802 803 804 805 806 808 809 810 811 812 813 813 814 815 816 817 817 818 818 819 819 820 820 821 821 822 822 823 822 823 823 823 824 824 825 825 826 827 828 828 828 829 829 829 830 831 831 831 832 832 833 833 834 834 834 834 834 835 835 835 835 835 836 836 836 837 837 838 838 839 840
777 778 779 781 784 787 789 791 793 794 795 797 799 801 802 803 803 804 806 808 809 810 812 812 813 813 814 815 816 817 817 818 819 819 820 821 821 821 822 822 823 823 823 823 823 823 824 824 825 825 826 827 828 829 829 829 829 830 830 831 831 831 832 832 833 834 834 835 835 835 835 835 835 835 835 836 836 836 836 837 838 838 838 839 840
777 779 781 783 786 789 791 792 793 795 796 798 799 800 801 802 803 804 806 808 809 810 811 812 812 813 813 815 815 816 817 819 820 821 821 821 821 822 822 823 823 823 823 823 823 823 824 824 825 826 827 828 829 829 829 830 830 830 830 830 831 831 832 833 833 834 835 835 835 836 836 836 836 836 836 836 837 837 837 837 837 838 838 839 840
780 782 783 785 788 790 792 793 794 796 797 797 798 799 801 801 803 804 806 807 809 810 811 811 811 812 813 814 814 815 817 818 820 821 821 821 821 822 823 823 823 823 823 824 824 824 824 824 825 826 827 828 829 829 830 830 830 831 831 831 831 832 833 833 834 835 835 836 836 836 837 837 837 837 837 837 837 838 837 837 837 838 838 839 840
781 783 784 787 789 790 792 793 795 796 797 797 798 799 800 801 802 804 805 806 808 809 810 810 810 811 812 813 813 814 815 817 818 820 820 821 821 822 823 823 823 823 823 824 824 825 825 825 826 826 827 828 829 829 830 830 831 831 831 831 832 832 833 833 834 835 835 836 836 837 837 838 838 838 838 838 838 838 838 838 838 838 838 839 839
782 783 785 787 789 790 791 793 794 795 796 797 798 799 800 801 802 803 805 806 807 808 809 809 809 809 810 811 813 814 814 815 817 819 819 820 821 822 822 822 823 823 823 824 825 825 826 826 826 826 827 828 829 829 830 830 831 831 831 832 832 832 832 833 834 835 836 836 837 837 838 838 839 839 839 839 839 839 839 838 838 838 838 839 839
783 785 786 788 789 789 790 792 794 795 796 797 798 799 800 800 802 803 804 805 806 807 808 808 808 808 810 811 812 813 814 815 816 817 818 819 820 821 821 822 822 823 823 824 825 826 826 826 826 826 827 828 828 829 829 830 831 831 832 832 832 832 833 833 834 835 836 836 836 837 838 838 839 839 839 839 839 839 839 839 839 839 839 839 839
785 786 787 788 789 790 790 792 794 795 796 797 798 799 800 800 802 803 804 805 806 807 807 808 807 808 809 810 812 813 813 814 815 816 817 818 819 820 820 821 822 823 823 824 825 826 826 826 827 827 827 828 828 829 829 830 830 831 832 832 832 832 833 833 834 835 835 835 836 837 837 838 839 839 839 839 839 840 840 840 840 839 839 839 839
785 787 789 790 790 790 791 792 793 795 795 797 798 799 800 801 802 803 804 805 805 806 807 807 807 808 809 810 811 812 813 813 814 816 817 818 818 819 820 821 822 823 824 825 825 826 826 826 826 827 827 827 828 828 829 830 830 831 831 832 832 833 833 833 834 834 834 834 835 836 837 837 838 838 839 839 839 840 840 840 840 840 840 839 840
784 786 788 789 788 789 791 792 793 794 795 796 798 799 800 802 803 803 804 804 805 806 806 807 807 808 809 810 810 811 812 812 813 814 816 817 818 818 820 821 822 823 824 825 826 826 826 826 826 826 827 827 828 828 829 830 830 830 831 831 832 833 834 834 834 834 835 835 835 836 836 837 837 838 838 838 839 839 839 839 840 840 840 840 840
784 784 785 787 787 788 790 792 793 794 796 797 798 800 801 802 803 804 804 805 805 805 806 806 807 808 808 809 810 810 811 811 812 813 814 815 816 818 819 820 822 823 825 826 827 826 826 826 826 826 826 827 827 828 829 829 830 830 831 831 831 833 835 835 834 834 836 835 835 837 837 837 836 837 837 837 838 838 839 839 839 839 840 840 840
784 784 785 787 787 788 790 792 794 795 796 797 798 800 801 802 803 804 805 805 805 806 806 806 806 807 808 808 809 810 810 811 811 812 813 814 815 817 819 820 821 823 825 827 827 827 826 825 825 826 826 826 827 828 828 829 829 830 831 831 832 834 835 835 834 834 836 836 836 837 838 837 836 836 836 836 836 837 837 838 838 839 839 840 840
783 784 785 787 787 788 790 792 794 795 796 797 798 799 801 802 803 804 804 805 805 806 806 806 806 807 807 808 809 810 810 811 811 812 812 813 815 817 818 819 820 821 823 825 825 825 825 825 824 825 825 825 826 827 828 828 829 830 831 831 832 834 834 834 834 834 835 835 835 836 837 837 837 836 836 836 836 836 836 837 837 838 839 839 840
783 784 785 786 787 788 789 791 794 795 796 797 798 799 800 801 802 803 804 805 806 806 807 807 807 807 808 808 809 810 811 811 811 811 812 813 815 816 817 818 819 820 822 822 822 823 824 824 824 824 824 825 825 826 827 828 829 830 831 831 832 833 834 834 834 834 834 835 835 835 836 836 836 836 836 836 835 835 835 836 837 837 838 839 839
781 783 785 786 787 788 789 791 793 795 796 797 798 798 800 801 802 803 804 805 806 807 808 808 808 808 808 809 809 810 811 811 811 811 812 813 814 815 816 817 817 818 820 820 821 822 824 825 825 824 824 824 825 826 828 829 830 830 831 831 832 833 833 834 834 834 834 835 835 835 836 836 836 836 836 836 835 835 835 836 836 837 837 838 838
780 782 784 786 787 788 789 791 792 794 795 796 798 799 800 801 802 803 804 805 806 807 808 809 809 809 809 810 810 810 811 812 812 812 813 813 814 815 815 816 816 817 819 820 821 823 824 824 825 823 823 824 826 827 828 828 830 830 831 832 833 834 834 835 835 835 835 834 835 835 835 836 836 836 836 836 836 835 835 835 836 836 836 836 837
781 782 783 785 787 788 789 790 792 794 795 796 798 799 800 802 803 803 804 805 806 807 808 809 810 810 810 811 810 811 811 812 812 813 814 814 815 816 816 817 817 818 820 820 822 823 823 824 823 823 823 824 825 827 828 828 829 830 831 833 835 836 836 836 835 835 835 834 835 835 835 835 836 836 836 836 836 836 836 836 837 837 836 835 835
780 781 783 785 785 787 788 790 792 793 795 796 797 799 800 802 803 804 805 806 806 807 808 809 810 811 811 811 811 811 811 812 813 814 815 815 816 817 817 818 819 819 820 821 822 822 822 823 823 823 823 824 825 827 827 828 829 830 831 832 834 835 837 837 836 835 835 835 835 835 835 835 836 836 836 836 836 836 836 836 836 836 836 835 835
780 780 783 784 785 787 788 790 791 793 794 796 797 799 800 801 802 803 804 805 805 806 807 809 810 811 812 812 812 811 812 812 813 814 815 815 816 816 817 818 818 819 819 819 820 821 821 822 822 823 823 824 826 827 827 828 830 830 830 830 831 833 834 836 836 836 835 835 835 835 836 836 836 836 836 836 836 836 836 836 835 835 835 836 836
780 781 783 785 785 787 788 789 791 792 794 795 797 799 800 801 802 803 804 805 805 805 807 809 810 811 812 813 813 813 813 813 814 814 815 815 815 816 816 817 817 817 817 818 818 819 820 821 822 823 823 824 826 827 828 829 831 830 829 830 830 831 832 834 835 836 836 836 835 835 836 836 836 836 836 836 836 836 836 836 836 836 836 836 836
781 782 783 784 786 786 787 788 790 792 794 795 797 798 800 801 803 804 805 806 806 806 808 809 811 812 813 813 814 814 814 814 814 814 815 815 815 816 816 816 816 817 817 817 818 819 820 821 822 823 823 824 825 827 828 829 830 829 829 830 831 832 832 833 834 835 836 837 837 836 836 836 836 836 836 836 836 836 835 835 835 835 835 835 835
779 780 781 783 785 786 786 787 789 791 793 795 797 799 801 802 804 805 806 808 809 808 808 810 811 812 813 814 815 815 815 815 815 815 815 815 815 816 816 816 816 817 817 818 818 819 820 821 822 823 823 824 825 826 827 828 828 828 829 830 831 832 833 833 834 835 836 837 838 838 837 837 837 837 837 837 837 836 835 835 835 835 834 834 834
778 779 781 783 784 784 785 786 788 791 793 796 798 800 802 803 804 805 806 808 809 808 809 810 811 812 813 814 815 816 816 816 816 816 816 816 816 816 817 817 818 818 818 819 819 820 821 822 823 823 824 824 825 825 826 827 827 828 829 830 831 832 833 834 835 835 836 836 838 838 838 838 838 838 838 838 838 837 836 836 835 835 834 834 833
779 780 781 782 783 783 784 785 788 791 794 796 798 800 801 802 803 804 805 807 808 808 809 810 811 812 814 815 816 817 817 817 817 818 818 817 817 817 818 818 819 819 820 820 820 821 822 823 824 824 825 825 825 826 826 827 828 828 829 830 831 833 833 834 835 835 836 836 837 838 838 838 838 838 839 839 839 838 837 837 836 836 835 834 834